When you browse on this site, cookies collect data to enhance your experience and personalize the content and advertising you see.
Visit our Privacy Policy to learn more. By continuing to use the site, you agree to this use of cookies and data.
  • In Netherlands
  • List of Countries
  • For 7 days
  • Water Temperature
  • Weather Map
  • Weather Widgets
  • user-avatar
    Login

    Hourly Weather Karkaci

    Today, 20 October, Sunday

    Time Temperature Precipitation Wind Pressure Humidity
    00:00 +11°C° 0 mm 1 mps 647 mmHg 74%
    01:00 +11°C° 0 mm 1 mps 647 mmHg 74%
    02:00 +11°C° 0 mm 1 mps 646 mmHg 73%
    03:00 +10°C° 0 mm 1 mps 646 mmHg 75%
    04:00 +10°C° 0 mm 1 mps 647 mmHg 75%
    05:00 +10°C° 0 mm 1 mps 647 mmHg 76%
    06:00 +10°C° 0 mm 1 mps 647 mmHg 76%
    07:00 +11°C° 0 mm 1 mps 648 mmHg 70%
    08:00 +13°C° 0 mm 1 mps 648 mmHg 65%
    09:00 +15°C° 0 mm 1 mps 649 mmHg 59%
    10:00 +15°C° 0 mm 2 mps 649 mmHg 58%
    11:00 +16°C° 0 mm 2 mps 649 mmHg 57%
    12:00 +17°C° 0 mm 2 mps 650 mmHg 56%
    13:00 +16°C° 0.2 mm 2 mps 649 mmHg 61%
    14:00 +15°C° 0.2 mm 2 mps 649 mmHg 65%
    15:00 +15°C° 0.2 mm 2 mps 649 mmHg 69%
    16:00 +13°C° 0.1 mm 1 mps 648 mmHg 76%
    17:00 +12°C° 0.1 mm 1 mps 648 mmHg 84%
    18:00 +10°C° 0.1 mm 0 mps 648 mmHg 91%
    19:00 +9°C° 0 mm 0 mps 648 mmHg 90%
    20:00 +9°C° 0 mm 0 mps 648 mmHg 90%
    21:00 +9°C° 0 mm 0 mps 648 mmHg 89%
    22:00 +9°C° 0 mm 0 mps 648 mmHg 88%
    23:00 +9°C° 0 mm 0 mps 648 mmHg 87%

    Tomorrow, 21 October, Monday

    Time Temperature Precipitation Wind Pressure Humidity
    00:00 +8°C° 0 mm 0 mps 648 mmHg 87%
    01:00 +8°C° 0 mm 0 mps 648 mmHg 85%
    02:00 +9°C° 0 mm 1 mps 647 mmHg 84%
    03:00 +9°C° 0 mm 1 mps 647 mmHg 83%
    04:00 +9°C° 0 mm 1 mps 647 mmHg 82%
    05:00 +8°C° 0 mm 1 mps 647 mmHg 81%
    06:00 +8°C° 0 mm 1 mps 647 mmHg 80%
    07:00 +10°C° 0 mm 1 mps 648 mmHg 74%
    08:00 +12°C° 0 mm 1 mps 649 mmHg 68%
    09:00 +14°C° 0 mm 1 mps 650 mmHg 63%
    10:00 +14°C° 0 mm 2 mps 650 mmHg 63%
    11:00 +15°C° 0 mm 2 mps 650 mmHg 63%
    12:00 +15°C° 0 mm 2 mps 650 mmHg 63%
    13:00 +15°C° 0 mm 2 mps 649 mmHg 67%
    14:00 +14°C° 0 mm 2 mps 649 mmHg 72%
    15:00 +14°C° 0 mm 2 mps 649 mmHg 77%
    16:00 +12°C° 0 mm 1 mps 648 mmHg 83%
    17:00 +11°C° 0 mm 1 mps 648 mmHg 89%
    18:00 +9°C° 0 mm 0 mps 648 mmHg 95%
    19:00 +9°C° 0 mm 0 mps 648 mmHg 93%
    20:00 +8°C° 0 mm 0 mps 647 mmHg 92%
    21:00 +8°C° 0 mm 0 mps 647 mmHg 91%
    22:00 +8°C° 0 mm 0 mps 647 mmHg 90%
    23:00 +8°C° 0 mm 0 mps 647 mmHg 89%

    Day after tomorrow, 22 October, Tuesday

    Time Temperature Precipitation Wind Pressure Humidity
    00:00 +8°C° 0 mm 0 mps 647 mmHg 88%
    01:00 +8°C° 0 mm 0 mps 647 mmHg 86%
    02:00 +8°C° 0 mm 1 mps 647 mmHg 84%
    03:00 +8°C° 0 mm 1 mps 646 mmHg 83%
    04:00 +8°C° 0 mm 1 mps 646 mmHg 81%
    05:00 +8°C° 0 mm 1 mps 646 mmHg 80%
    06:00 +7°C° 0 mm 0 mps 646 mmHg 78%
    07:00 +10°C° 0 mm 1 mps 647 mmHg 74%
    08:00 +11°C° 0 mm 1 mps 648 mmHg 69%
    09:00 +13°C° 0 mm 1 mps 648 mmHg 65%
    10:00 +14°C° 0 mm 2 mps 648 mmHg 65%
    11:00 +14°C° 0 mm 2 mps 648 mmHg 66%
    12:00 +15°C° 0 mm 2 mps 649 mmHg 66%
    13:00 +14°C° 0 mm 2 mps 648 mmHg 70%
    14:00 +14°C° 0 mm 2 mps 648 mmHg 74%
    15:00 +13°C° 0 mm 2 mps 647 mmHg 77%
    16:00 +12°C° 0 mm 1 mps 647 mmHg 83%
    17:00 +11°C° 0 mm 1 mps 647 mmHg 88%
    18:00 +9°C° 0 mm 0 mps 647 mmHg 94%
    19:00 +9°C° 0 mm 0 mps 647 mmHg 93%
    20:00 +9°C° 0 mm 0 mps 647 mmHg 93%
    21:00 +8°C° 0 mm 0 mps 647 mmHg 92%
    22:00 +8°C° 0 mm 0 mps 646 mmHg 91%
    23:00 +7°C° 0 mm 0 mps 646 mmHg 91%

    23 October, Wednesday

    Time Temperature Precipitation Wind Pressure Humidity
    00:00 +7°C° 0 mm 0 mps 646 mmHg 90%
    01:00 +7°C° 0 mm 0 mps 646 mmHg 90%
    02:00 +7°C° 0 mm 0 mps 646 mmHg 89%
    03:00 +6°C° 0 mm 0 mps 646 mmHg 89%
    04:00 +6°C° 0 mm 0 mps 646 mmHg 89%
    05:00 +6°C° 0 mm 0 mps 646 mmHg 88%
    06:00 +6°C° 0 mm 0 mps 646 mmHg 88%
    07:00 +9°C° 0 mm 1 mps 646 mmHg 83%
    08:00 +10°C° 0 mm 1 mps 647 mmHg 78%
    09:00 +12°C° 0 mm 1 mps 648 mmHg 73%
    10:00 +12°C° 0 mm 2 mps 648 mmHg 73%
    11:00 +13°C° 0 mm 2 mps 648 mmHg 72%
    12:00 +13°C° 0 mm 2 mps 648 mmHg 72%
    13:00 +12°C° 0 mm 2 mps 647 mmHg 77%
    14:00 +12°C° 0 mm 2 mps 647 mmHg 81%
    15:00 +10°C° 0 mm 2 mps 647 mmHg 86%
    16:00 +11°C° 0 mm 1 mps 647 mmHg 89%
    17:00 +10°C° 0 mm 1 mps 647 mmHg 91%
    18:00 +8°C° 0 mm 0 mps 646 mmHg 94%
    19:00 +8°C° 0 mm 0 mps 647 mmHg 93%
    20:00 +8°C° 0 mm 0 mps 647 mmHg 92%
    21:00 +8°C° 0 mm 0 mps 647 mmHg 92%
    22:00 +7°C° 0 mm 0 mps 646 mmHg 91%
    23:00 +7°C° 0 mm 0 mps 646 mmHg 91%

    24 October, Thursday

    Time Temperature Precipitation Wind Pressure Humidity
    00:00 +6°C° 0 mm 0 mps 646 mmHg 90%
    01:00 +6°C° 0 mm 0 mps 646 mmHg 89%
    02:00 +6°C° 0 mm 0 mps 646 mmHg 87%
    03:00 +6°C° 0 mm 0 mps 646 mmHg 86%
    04:00 +6°C° 0 mm 0 mps 645 mmHg 84%
    05:00 +6°C° 0 mm 0 mps 645 mmHg 83%
    06:00 +7°C° 0 mm 1 mps 645 mmHg 81%
    07:00 +9°C° 0 mm 1 mps 646 mmHg 74%
    08:00 +10°C° 0 mm 1 mps 646 mmHg 68%
    09:00 +12°C° 0 mm 1 mps 647 mmHg 61%
    10:00 +13°C° 0 mm 2 mps 647 mmHg 61%
    11:00 +14°C° 0 mm 2 mps 647 mmHg 61%
    12:00 +14°C° 0 mm 2 mps 647 mmHg 60%
    13:00 +14°C° 0 mm 2 mps 647 mmHg 64%
    14:00 +14°C° 0 mm 2 mps 646 mmHg 68%
    15:00 +13°C° 0 mm 2 mps 646 mmHg 72%
    16:00 +12°C° 0 mm 1 mps 646 mmHg 78%
    17:00 +11°C° 0 mm 1 mps 645 mmHg 84%
    18:00 +9°C° 0 mm 1 mps 645 mmHg 90%
    19:00 +9°C° 0 mm 1 mps 645 mmHg 86%
    20:00 +9°C° 0 mm 1 mps 645 mmHg 83%
    21:00 +9°C° 0 mm 1 mps 645 mmHg 80%
    22:00 +9°C° 0 mm 1 mps 645 mmHg 77%
    23:00 +9°C° 0 mm 1 mps 644 mmHg 75%

    25 October, Friday

    Time Temperature Precipitation Wind Pressure Humidity
    00:00 +9°C° 0 mm 1 mps 644 mmHg 72%
    01:00 +9°C° 0 mm 1 mps 644 mmHg 68%
    02:00 +8°C° 0 mm 1 mps 644 mmHg 64%
    03:00 +8°C° 0 mm 1 mps 644 mmHg 60%
    04:00 +8°C° 0 mm 1 mps 644 mmHg 57%
    05:00 +8°C° 0 mm 1 mps 644 mmHg 54%
    06:00 +8°C° 0 mm 1 mps 644 mmHg 51%
    07:00 +10°C° 0 mm 1 mps 644 mmHg 47%
    08:00 +12°C° 0 mm 1 mps 645 mmHg 43%
    09:00 +14°C° 0 mm 1 mps 646 mmHg 39%
    10:00 +14°C° 0 mm 1 mps 646 mmHg 41%
    11:00 +15°C° 0 mm 2 mps 646 mmHg 43%
    12:00 +16°C° 0 mm 2 mps 646 mmHg 46%
    13:00 +16°C° 0 mm 2 mps 646 mmHg 50%
    14:00 +15°C° 0 mm 2 mps 645 mmHg 55%
    15:00 +15°C° 0 mm 2 mps 645 mmHg 60%
    16:00 +13°C° 0 mm 2 mps 645 mmHg 70%
    17:00 +11°C° 0 mm 1 mps 644 mmHg 79%
    18:00 +10°C° 0 mm 1 mps 644 mmHg 89%
    19:00 +10°C° 0 mm 1 mps 644 mmHg 86%
    20:00 +9°C° 0 mm 1 mps 644 mmHg 84%
    21:00 +9°C° 0 mm 1 mps 644 mmHg 81%
    22:00 +9°C° 0 mm 1 mps 644 mmHg 79%
    23:00 +9°C° 0 mm 1 mps 644 mmHg 77%
    Show more